Location: Fluertsh�userhof
(48.7537°N, 10.3850°E)
Time: 09:56:15
(UTC+00:00)

Cosmos 1626 - Pass Details

Date: 16 January 2021
Orbit: 490 x 494 km, 82.5° (Epoch: 28 February)

Event Time Altitude Azimuth Distance (km) Brightness Sun altitude
Rises 18:07:12 0° 222° (SW) 2,568 6.5 -21.8°
Reaches altitude 10° 18:09:40 10° 238° (WSW) 1,691 5.7 -22.2°
Maximum altitude 18:12:34 22° 290° (WNW) 1,143 4.6 -22.6°
Drops below altitude 10° 18:15:30 10° 342° (NNW) 1,701 4.9 -23.1°
Enters shadow 18:17:02 - 354° (N) 2,229 5.4 -23.4°
